DELTA 1 DEB, 42654

Orbit data source: Space-Track

DELTA 1 DEB, 42654 is space debris in SSO originally from a launch on Thu, 12 Jun 1975 UTC launched from the Air Force Western Test Range (AFWTR). Debris objects in space refer to the collection of defunct objects orbiting the Earth. Examples of debris include non-operational satellites, rocket bodies, and fragments generated from explosions, collisions, or faulty payload assembly.

Loading next visibility...
Identifier
42654, 1975-052MP
Orbit
SSO
Country
Flag of USUS
Related business
Manufacturer
Unknown
Mission
Spacecraft
Bus & Motor
Unknown
Mass
Unknown
Launch date (UTC)
1975-06-12 (50 years ago)
Launch vehicle
Unknown
Launch site
Air Force Western Test Range (AFWTR)
Object type
Payload
Rocket body
Debris
Shape & HBR
Unknown shape, 0.1 m
Radar Cross Section
Small (<0.1 m²)

Expand to show TLE details & history
Last TLE update: 1 month ago

TLE from 1 month ago
0 DELTA 1 DEB
1 42654U 75052MP  25256.17204330  .00000125  00000-0  50556-3 0  9992
2 42654  99.7103 214.7310 0276146  67.8415 312.1749 12.91849772999326
Epoch: 2025-09-13T04:07Z
TLE epoch observation values (Epoch: 2025-09-13T04:07:44.541Z)
Latitude
17.34649°
Longitude
157.33795°
Altitude
1,157.345 km
Speed
7.341 km/s
True Right ascension
14h 06m 43s
True Declination
17° 15' 15"
Sunlit
Object was in daylight at epoch
Visualization orbit readout
Latitude
Unknown
Longitude
Unknown
Altitude
Unknown
Speed
Unknown
Apparent Right ascension
Unknown
Apparent Declination
Unknown
Sunlit
N/A
Visualization observer readout
Local Sidereal Time
04:37:34
Azimuth
Unknown
Elevation
Unknown
Doppler factor
Unknown
Orbital elements
Apogee altitude
1,503.364 km
Perigee altitude
1,079.772 km
Semi-major axis
7,669.705 km
Eccentricity
0.02761
Inclination
99.7103°
RAAN
214.731°
Arg. of periapsis
67.8415°
True anomaly
309.77489°
Mean anomaly
312.1749°
Eccentric anomaly
310.98044°
Mean motion
3.23128 °/min
Orbital period
111.41 mins
BSTAR
0.00050556
Loading maneuver chart data...
Computing Atmospheric mass density...
Loading historical data...
Loading historical data...
Loading historical data...
Loading historical data...
Loading historical data...
Loading historical data...
Loading historical data...

Documentation

Showing up to 5 results
|